CW6697 Weather Reports


time (UTC)temp
C
wind
direction
speed
KPH
gust
KPH
rain 1hr
cm
rain 24hr
cm
rain mn
cm
humidity
%
barometer
mb
20260505073845 10 46 1.6 3.2 0.00 0.00 0.00 70 1011.9
20260505073343 11 103 1.6 3.2 0.00 0.00 0.00 67 1011.7
20260505072840 11 113 0.0 0.0 0.00 0.00 0.00 66 1011.9
20260505072336 11 68 1.6 3.2 0.00 0.00 0.00 66 1011.4
20260505071832 11 246 0.0 0.0 0.00 0.00 0.00 65 1011.3
20260505071328 11 76 0.0 1.6 0.00 0.00 0.00 66 1011.3
20260505070827 11 157 0.0 0.0 0.00 0.00 0.00 66 1011.4
20260505070323 11 157 0.0 3.2 0.00 0.00 0.00 67 1011.2
20260505065818 11 66 0.0 1.6 0.00 0.00 0.00 66 1011.2
20260505065315 11 49 0.0 1.6 0.00 0.00 0.00 67 1011.2
20260505064812 11 55 0.0 1.6 0.00 0.00 0.00 66 1010.8
20260505064309 11 212 0.0 3.2 0.00 0.00 0.00 66 1011.1
20260505063808 11 103 0.0 3.2 0.00 0.00 0.00 67 1011.0
20260505063303 11 96 1.6 3.2 0.00 0.00 0.00 64 1010.9
20260505062800 12 105 1.6 3.2 0.00 0.00 0.00 62 1010.7
20260505062257 12 32 0.0 1.6 0.00 0.00 0.00 62 1011.1
20260505061754 12 55 1.6 3.2 0.00 0.00 0.00 60 1010.9
20260505061252 12 137 0.0 1.6 0.00 0.00 0.00 60 1010.7
20260505060749 12 279 0.0 3.2 0.00 0.00 0.00 60 1010.7
20260505060246 13 230 0.0 0.0 0.00 0.00 0.00 58 1010.9
20260505055741 13 282 0.0 1.6 0.00 0.00 0.00 58 1010.8
20260505055238 12 124 0.0 1.6 0.00 0.00 0.00 58 1010.7
20260505054736 13 218 0.0 1.6 0.00 0.00 0.00 58 1010.8
20260505054228 12 224 0.0 4.8 0.00 0.00 0.00 59 1010.7
20260505053726 12 31 1.6 3.2 0.00 0.00 0.00 60 1010.6
20260505053222 12 230 0.0 1.6 0.00 0.00 0.00 59 1010.6
20260505052720 12 89 0.0 0.0 0.00 0.00 0.00 60 1010.7
20260505052216 12 81 1.6 1.6 0.00 0.00 0.00 60 1010.6
20260505051714 13 57 0.0 0.0 0.00 0.00 0.00 59 1010.4
20260505051211 13 41 1.6 3.2 0.00 0.00 0.00 61 1010.4
20260505050703 13 257 0.0 1.6 0.00 0.00 0.00 57 1010.4
20260505050201 13 37 0.0 1.6 0.00 0.00 0.00 59 1010.4
20260505041630 13 72 0.0 3.2 0.00 0.00 0.00 61 1009.7
20260505041128 14 111 0.0 1.6 0.00 0.00 0.00 60 1009.6
20260505040624 14 130 0.0 3.2 0.00 0.00 0.00 58 1009.4
20260505040122 15 4 0.0 1.6 0.00 0.00 0.00 61 1009.3
20260505035618 15 89 0.0 1.6 0.00 0.00 0.00 57 1009.3
20260505035114 15 142 0.0 1.6 0.00 0.00 0.00 58 1009.2
20260505034611 15 70 0.0 4.8 0.00 0.00 0.00 56 1009.1
20260505034108 15 70 1.6 3.2 0.00 0.00 0.00 54 1008.9
20260505033604 16 238 0.0 1.6 0.00 0.00 0.00 54 1009.0
20260505033103 16 37 0.0 3.2 0.00 0.00 0.00 54 1008.7
20260505032600 16 251 0.0 3.2 0.00 0.00 0.00 56 1008.8
20260505032057 16 186 0.0 0.0 0.00 0.00 0.00 51 1008.4
20260505031554 17 50 0.0 3.2 0.00 0.00 0.00 49 1008.4
20260505031050 17 352 3.2 3.2 0.00 0.00 0.00 50 1008.5
20260505030548 18 289 1.6 3.2 0.00 0.00 0.00 47 1008.3
20260505030043 18 269 0.0 3.2 0.00 0.00 0.00 44 1008.3
20260505025539 18 267 0.0 3.2 0.00 0.00 0.00 44 1008.4
20260505025038 18 351 1.6 3.2 0.00 0.00 0.00 44 1008.3
20260505024535 19 309 0.0 3.2 0.00 0.00 0.00 42 1008.3
20260505024032 19 269 0.0 1.6 0.00 0.00 0.00 43 1008.2
20260505023529 20 275 3.2 4.8 0.00 0.00 0.00 42 1008.0
20260505023027 20 266 3.2 6.4 0.00 0.00 0.00 42 1008.0
20260505022524 20 269 0.0 3.2 0.00 0.00 0.00 40 1007.9
20260505022021 20 309 0.0 3.2 0.00 0.00 0.00 39 1008.0
20260505021518 21 280 1.6 4.8 0.00 0.00 0.00 39 1008.0
20260505021014 21 246 0.0 3.2 0.00 0.00 0.00 36 1007.9
20260505020509 22 261 3.2 4.8 0.00 0.00 0.00 38 1008.2
20260505020007 22 271 1.6 4.8 0.00 0.00 0.00 34 1008.0
20260505015503 23 343 0.0 8.0 0.00 0.00 0.00 32 1007.9
20260505015000 22 228 1.6 6.4 0.00 0.00 0.00 38 1008.2
20260505014457 23 239 3.2 4.8 0.00 0.00 0.00 35 1007.9
20260505013955 23 269 0.0 3.2 0.00 0.00 0.00 35 1007.9
20260505013451 23 6 0.0 6.4 0.00 0.00 0.00 37 1007.8
20260505012949 23 261 3.2 4.8 0.00 0.00 0.00 38 1007.9
20260505012447 23 269 0.0 4.8 0.00 0.00 0.00 40 1007.9
20260505011943 23 244 3.2 6.4 0.00 0.00 0.00 31 1007.8
20260505011439 23 274 3.2 3.2 0.00 0.00 0.00 35 1007.8
20260505010936 23 268 6.4 6.4 0.00 0.00 0.00 33 1007.9
20260505010432 24 251 1.6 4.8 0.00 0.00 0.00 38 1007.8
20260505005928 25 273 3.2 8.0 0.00 0.00 0.00 29 1007.9
20260505005425 24 278 4.8 12.9 0.00 0.00 0.00 29 1008.2
20260505004923 23 253 1.6 8.0 0.00 0.00 0.00 36 1007.9
20260505004419 22 241 3.2 3.2 0.00 0.00 0.00 40 1007.9
20260505003916 22 307 1.6 4.8 0.00 0.00 0.00 43 1008.0
20260505003413 22 243 3.2 4.8 0.00 0.00 0.00 40 1008.0
20260505002909 23 273 3.2 4.8 0.00 0.00 0.00 41 1007.8
20260505002406 23 250 1.6 3.2 0.00 0.00 0.00 35 1007.8
20260505001904 23 245 1.6 3.2 0.00 0.00 0.00 34 1008.2
20260505001402 24 258 3.2 3.2 0.00 0.00 0.00 37 1008.2
20260505000859 24 261 1.6 3.2 0.00 0.00 0.00 34 1008.2
20260505000358 25 252 1.6 3.2 0.00 0.00 0.00 35 1007.8
20260504235853 25 286 1.6 4.8 0.00 0.00 0.00 30 1007.8
20260504235350 25 304 1.6 4.8 0.00 0.00 0.00 31 1008.2
20260504234846 25 293 3.2 9.7 0.00 0.00 0.00 28 1008.3
20260504234344 25 250 3.2 9.7 0.00 0.00 0.00 31 1008.2
20260504233840 26 276 1.6 3.2 0.00 0.00 0.00 32 1008.0
20260504233336 26 259 3.2 9.7 0.00 0.00 0.00 27 1008.3
20260504232833 26 268 1.6 3.2 0.00 0.00 0.00 29 1008.2
20260504232330 26 328 0.0 8.0 0.00 0.00 0.00 28 1007.9
20260504231827 26 247 3.2 8.0 0.00 0.00 0.00 27 1007.9
20260504231323 26 267 4.8 6.4 0.00 0.00 0.00 26 1008.2
20260504230819 26 123 0.0 6.4 0.00 0.00 0.00 25 1008.2
20260504230318 27 319 3.2 8.0 0.00 0.00 0.00 26 1008.4
20260504225816 27 243 3.2 9.7 0.00 0.00 0.00 25 1008.2
20260504225312 27 257 3.2 3.2 0.00 0.00 0.00 25 1008.2
20260504224810 27 253 3.2 9.7 0.00 0.00 0.00 27 1008.4
20260504224306 26 229 6.4 9.7 0.00 0.00 0.00 25 1007.9
20260504223803 27 290 3.2 16.1 0.00 0.00 0.00 25 1008.0
20260504223258 27 292 3.2 3.2 0.00 0.00 0.00 26 1008.3
20260504222755 26 354 4.8 6.4 0.00 0.00 0.00 27 1008.6
20260504222252 27 335 3.2 8.0 0.00 0.00 0.00 25 1008.2
20260504221750 27 311 3.2 6.4 0.00 0.00 0.00 25 1008.4
20260504221247 27 75 0.0 6.4 0.00 0.00 0.00 24 1008.4
20260504220743 26 51 1.6 4.8 0.00 0.00 0.00 28 1008.7
20260504220241 27 308 1.6 4.8 0.00 0.00 0.00 27 1008.6
20260504215738 27 301 3.2 8.0 0.00 0.00 0.00 25 1008.5
20260504215234 26 226 6.4 16.1 0.00 0.00 0.00 25 1008.5
20260504214730 26 309 3.2 4.8 0.00 0.00 0.00 27 1008.8
20260504214227 27 1 3.2 4.8 0.00 0.00 0.00 27 1008.8
20260504213724 27 326 0.0 8.0 0.00 0.00 0.00 26 1008.8
20260504213220 26 300 1.6 9.7 0.00 0.00 0.00 25 1008.8
20260504212717 27 299 0.0 12.9 0.00 0.00 0.00 26 1008.7
20260504212214 28 105 1.6 6.4 0.00 0.00 0.00 23 1009.0
20260504211711 28 230 4.8 8.0 0.00 0.00 0.00 23 1008.8
20260504211207 27 238 0.0 9.7 0.00 0.00 0.00 24 1008.8
20260504210704 28 259 3.2 8.0 0.00 0.00 0.00 25 1008.8
20260504210201 28 313 3.2 4.8 0.00 0.00 0.00 23 1009.0
20260504205658 29 0 1.6 6.4 0.00 0.00 0.00 22 1009.1
20260504205155 29 292 3.2 11.3 0.00 0.00 0.00 23 1008.9
20260504204654 29 63 3.2 6.4 0.00 0.00 0.00 21 1008.8
20260504204153 29 33 3.2 8.0 0.00 0.00 0.00 25 1009.1
20260504203651 28 237 4.8 6.4 0.00 0.00 0.00 22 1009.1
20260504203149 28 111 0.0 4.8 0.00 0.00 0.00 22 1009.1
20260504202648 28 199 3.2 6.4 0.00 0.00 0.00 24 1009.2
20260504202145 28 256 3.2 6.4 0.00 0.00 0.00 25 1009.3
20260504201642 27 260 3.2 8.0 0.00 0.00 0.00 25 1009.3
20260504201140 28 201 3.2 8.0 0.00 0.00 0.00 22 1009.3
20260504200637 28 314 0.0 9.7 0.00 0.00 0.00 23 1009.4
20260504200133 27 307 3.2 11.3 0.00 0.00 0.00 23 1009.6
20260504195630 27 60 3.2 9.7 0.00 0.00 0.00 24 1009.5
20260504195126 28 17 3.2 4.8 0.00 0.00 0.00 24 1009.5
20260504194623 27 37 3.2 8.0 0.00 0.00 0.00 23 1009.6
20260504194119 27 262 3.2 6.4 0.00 0.00 0.00 23 1009.7
20260504193615 27 214 6.4 8.0 0.00 0.00 0.00 22 1009.6
20260504193114 27 146 0.0 6.4 0.00 0.00 0.00 22 1009.6
20260504192611 27 27 3.2 9.7 0.00 0.00 0.00 24 1009.7
20260504192109 28 275 4.8 6.4 0.00 0.00 0.00 23 1009.6
20260504191608 27 238 4.8 9.7 0.00 0.00 0.00 24 1009.9
20260504191103 27 224 6.4 17.7 0.00 0.00 0.00 24 1010.0
20260504190559 27 209 4.8 9.7 0.00 0.00 0.00 24 1010.1
20260504190055 27 291 3.2 12.9 0.00 0.00 0.00 24 1010.4
20260504185553 27 337 3.2 8.0 0.00 0.00 0.00 23 1010.2
20260504185049 26 296 4.8 12.9 0.00 0.00 0.00 26 1010.3
20260504184545 27 280 4.8 11.3 0.00 0.00 0.00 24 1010.4
20260504184040 27 315 3.2 12.9 0.00 0.00 0.00 27 1010.3
20260504183537 27 248 4.8 8.0 0.00 0.00 0.00 25 1010.2
20260504183036 26 286 3.2 8.0 0.00 0.00 0.00 26 1010.5
20260504182532 26 238 6.4 9.7 0.00 0.00 0.00 26 1010.5
20260504182030 26 258 6.4 11.3 0.00 0.00 0.00 24 1010.7
20260504181526 26 315 0.0 9.7 0.00 0.00 0.00 26 1010.4
20260504181025 26 344 3.2 6.4 0.00 0.00 0.00 25 1010.5
20260504180523 26 135 3.2 12.9 0.00 0.00 0.00 30 1010.5
20260504180022 26 238 3.2 12.9 0.00 0.00 0.00 26 1010.6
20260504175519 26 238 3.2 12.9 0.00 0.00 0.00 25 1010.6
20260504175016 26 132 1.6 8.0 0.00 0.00 0.00 28 1010.6
20260504174514 25 337 4.8 14.5 0.00 0.00 0.00 26 1010.5
20260504174010 26 259 4.8 12.9 0.00 0.00 0.00 25 1010.9
20260504173507 26 325 3.2 6.4 0.00 0.00 0.00 26 1010.8
20260504173005 26 342 6.4 6.4 0.00 0.00 0.00 26 1010.8
20260504172501 25 222 3.2 8.0 0.00 0.00 0.00 24 1011.0
20260504171957 25 264 1.6 9.7 0.00 0.00 0.00 26 1011.0
20260504171454 25 207 3.2 6.4 0.00 0.00 0.00 27 1010.9
20260504170951 25 294 0.0 6.4 0.00 0.00 0.00 26 1011.0
20260504170447 25 311 0.0 4.8 0.00 0.00 0.00 27 1011.0
20260504160407 20 301 3.2 6.4 0.00 0.00 0.00 36 1011.6
20260504150831 16 32 3.2 6.4 0.00 0.00 0.00 52 1011.8
20260504150327 15 37 0.0 4.8 0.00 0.00 0.00 54 1012.0
20260504141258 10 79 3.2 4.8 0.00 0.00 0.00 74 1012.1
20260504140754 9 101 3.2 3.2 0.00 0.00 0.00 75 1012.0
20260504140250 8 57 3.2 4.8 0.00 0.00 0.00 78 1012.2
20260504130719 7 100 3.2 4.8 0.00 0.00 0.00 74 1011.8
20260504130214 7 107 3.2 4.8 0.00 0.00 0.00 74 1011.8
20260504120138 7 111 1.6 4.8 0.00 0.00 0.00 73 1011.8
20260504110606 8 72 0.0 3.2 0.00 0.00 0.00 72 1011.8
20260504100528 8 84 3.2 4.8 0.00 0.00 0.00 70 1011.7
20260504081921 10 63 0.0 3.2 0.00 0.00 0.00 65 1011.7
20260504081418 10 145 0.0 3.2 0.00 0.00 0.00 63 1011.7
20260504080914 10 147 0.0 3.2 0.00 0.00 0.00 63 1011.7
20260504080411 10 103 0.0 3.2 0.00 0.00 0.00 63 1011.6